• Join FlightAware (Why Join?)
  • Login
  • US Flag 
03:21PM EST


 

Airport Tracker/Info


-or-


 

Live Flight TrackerFlight Track Log ✈ N240JK ✈ 23-Jun-2013 ✈ KECG - KUES

Flight Track Log - Related Links

Times and Time Zones

All times are in EDT time to prevent confusion due to time zone crossing. See the N240JK flight status page for this flight to view local times or setup timezone preferences in your user account.

Time Position Orientation Groundspeed Altitude Reporting Facility
EDT Latitude Longitude Course Direction KTS MPH feet Rate Location/Type
03:49PM 36.2647 -76.2567 275° West 222 255 4,800  Level Washington Center
03:50PM 36.2811 -76.3342 285° West 238 274 10,100 4,680 Climbing Washington Center
03:51PM 36.3286 -76.3939 315° West 237 273 14,300 2,880 Climbing Washington Center
03:52PM 36.3867 -76.4639 316° Northwest 306 352 15,900 900 Climbing Washington Center
03:53PM 36.4403 -76.5214 319° Northwest 325 374 16,000  Climbing Washington Center
03:54PM 36.5211 -76.5972 323° Northwest 355 409 16,000 -60 Level Washington Center
03:55PM 36.6231 -76.6400 341° North 366 421 15,900  Descending Washington Center
03:56PM 36.7164 -76.6983 333° Northwest 372 428 16,000 600 Climbing Washington Center
03:57PM 36.7972 -76.7617 328° Northwest 372 428 17,200 1,560 Climbing Washington Center
03:58PM 36.8819 -76.8331 326° Northwest 372 428 19,200 2,100 Climbing Washington Center
03:59PM 36.9667 -76.8994 328° Northwest 367 422 21,500 2,160 Climbing Washington Center
04:00PM 37.0536 -76.9633 330° Northwest 367 422 23,500 1,860 Climbing Washington Center
04:01PM 37.1489 -77.0303 331° Northwest 378 435 25,300 1,920 Climbing Washington Center
04:02PM 37.2625 -77.1081 331° Northwest 404 465 27,400 1,920 Climbing Washington Center
04:03PM 37.3681 -77.1806 331° Northwest 421 484 29,200 1,860 Climbing Washington Center
04:04PM 37.4775 -77.2536 332° Northwest 434 499 31,200 1,860 Climbing Washington Center
04:05PM 37.5892 -77.3267 333° Northwest 434 499 33,000 900 Climbing Washington Center
04:06PM 37.7008 -77.4028 332° Northwest 441 507 33,000  Level Washington Center
04:07PM 37.8164 -77.4792 332° Northwest 457 526 33,000  Level Washington Center
04:08PM 37.9319 -77.5611 331° Northwest 462 532 33,000  Level Washington Center
04:09PM 38.0206 -77.6214 332° Northwest 462 532 33,000  Level Washington Center
04:10PM 38.1419 -77.7117 330° Northwest 457 526 33,000  Level Washington Center
04:11PM 38.2533 -77.7864 332° Northwest 457 526 33,100 300 Climbing Washington Center
04:12PM 38.3667 -77.8639 332° Northwest 457 526 33,700 420 Climbing Washington Center
04:13PM 38.4736 -77.9386 331° Northwest 452 520 34,000 120 Climbing Washington Center
04:14PM 38.5844 -78.0192 330° Northwest 452 520 34,000 60 Level Washington Center
04:15PM 38.6956 -78.0972 331° Northwest 452 520 34,200 540 Climbing Washington Center
04:16PM 38.8086 -78.1731 332° Northwest 452 520 35,100 1,380 Climbing Washington Center
04:17PM 38.9108 -78.2675 324° Northwest 452 520 37,000 900 Climbing Washington Center
04:18PM 39.0147 -78.3700 323° Northwest 458 527 37,000  Level Washington Center
04:19PM 39.1247 -78.4811 322° Northwest 463 533 37,000 420 Level Washington Center
04:20PM 39.2264 -78.5817 323° Northwest 463 533 37,900 960 Climbing Washington Center
04:22PM 39.4467 -78.8061 322° Northwest 457 526 40,000 660 Climbing Cleveland Center
04:23PM 39.5506 -78.9114 322° Northwest 468 539 40,000  Level Cleveland Center
04:24PM 39.6372 -79.0061 320° Northwest 468 539 40,000  Level Cleveland Center
04:25PM 39.7386 -79.1092 322° Northwest 468 539 40,000  Level Cleveland Center
04:26PM 39.8400 -79.2178 321° Northwest 468 539 40,000  Level Cleveland Center
04:27PM 39.9228 -79.3433 311° West 461 531 40,000  Level Cleveland Center
04:28PM 39.9953 -79.4828 304° West 461 531 40,000  Level Cleveland Center
04:29PM 40.0672 -79.6172 305° West 461 531 40,000  Level Cleveland Center
04:30PM 40.1392 -79.7547 304° West 461 531 40,000  Level Cleveland Center
04:31PM 40.2111 -79.8897 305° West 461 531 40,000  Level Cleveland Center
04:32PM 40.2806 -80.0253 304° West 461 531 40,000  Level Cleveland Center
04:33PM 40.3542 -80.1689 304° West 466 536 40,000  Level Cleveland Center
04:34PM 40.4253 -80.3075 304° West 461 531 40,000  Level Cleveland Center
04:35PM 40.5092 -80.4603 306° West 461 531 40,000  Level Cleveland Center
04:36PM 40.5800 -80.5967 304° West 466 536 40,000  Level Cleveland Center
04:37PM 40.6508 -80.7336 304° West 459 528 40,000  Level Cleveland Center
04:38PM 40.7214 -80.8736 304° West 466 536 40,000  Level Cleveland Center
04:39PM 40.7917 -81.0108 304° West 461 531 40,000  Level Cleveland Center
04:40PM 40.8578 -81.1514 302° West 461 531 40,000  Level Cleveland Center
04:41PM 40.9425 -81.2867 310° West 466 536 40,000  Level Cleveland Center
04:42PM 41.0231 -81.4117 311° West 460 529 40,000  Level Cleveland Center
04:43PM 41.1056 -81.5394 311° West 460 529 40,000  Level Cleveland Center
04:44PM 41.1939 -81.6703 312° West 460 529 40,000  Level Cleveland Center
04:45PM 41.2739 -81.8014 309° West 460 529 40,000  Level Cleveland Center
04:46PM 41.3578 -81.9303 311° West 460 529 40,000  Level Cleveland Center
04:47PM 41.4375 -82.0678 308° West 473 544 40,000  Level Cleveland Center
04:48PM 41.5192 -82.1972 310° West 467 537 40,000  Level Cleveland Center
04:49PM 41.6006 -82.3269 310° West 462 532 40,000  Level Cleveland Center
04:50PM 41.6697 -82.4400 309° West 449 517 40,000  Level Cleveland Center
04:51PM 41.7508 -82.5703 310° West 449 517 40,000  Level Cleveland Center
04:52PM 41.8319 -82.7011 310° West 456 525 40,000  Level Cleveland Center
04:53PM 41.9108 -82.8319 309° West 456 525 40,000  Level Cleveland Center
04:54PM 41.9894 -82.9633 309° West 451 519 40,000  Level Cleveland Center
04:55PM 42.0681 -83.0894 310° West 451 519 40,000  Level Cleveland Center
04:56PM 42.1506 -83.2242 310° West 456 525 40,000  Level Cleveland Center
04:57PM 42.2247 -83.3508 308° West 451 519 40,000  Level Cleveland Center
04:58PM 42.3028 -83.4806 309° West 451 519 40,000  Level Cleveland Center
04:59PM 42.3928 -83.6281 310° West 461 531 40,000  Level Cleveland Center
05:00PM 42.4686 -83.7556 309° West 456 525 40,000  Level Cleveland Center
05:01PM 42.5442 -83.8833 309° West 451 519 40,000  Level Cleveland Center
05:02PM 42.6217 -84.0144 309° West 451 519 40,000  Level Cleveland Center
05:03PM 42.7008 -84.1489 309° West 451 519 40,000  Level Cleveland Center
05:04PM 42.7781 -84.2861 308° West 451 519 40,000  Level Cleveland Center
05:05PM 42.8481 -84.3964 311° West 460 529 40,000  Level Chicago Center
05:06PM 42.9250 -84.5331 308° West 458 527 40,000  Level Chicago Center
05:07PM 43.0042 -84.6689 309° West 460 529 40,000  Level Chicago Center
05:08PM 43.0819 -84.8050 308° West 458 527 40,000  Level Chicago Center
05:09PM 43.1533 -84.9842 299° West 465 535 40,000 -300 Level Chicago Center
05:10PM 43.1503 -85.1544 269° West 452 520 39,400 -1,260 Descending Chicago Center
05:11PM 43.1531 -85.3233 271° West 446 513 37,400 -2,040 Descending Chicago Center
05:12PM 43.1564 -85.4928 272° West 449 517 35,300 -2,100 Descending Chicago Center
05:13PM 43.1617 -85.6606 273° West 445 512 33,100 -2,340 Descending Chicago Center
05:15PM 43.1683 -85.8547 273° West 435 501 30,500 -2,280 Descending Chicago Center
05:16PM 43.1697 -86.0175 271° West 439 505 28,400 -2,040 Descending Chicago Center
05:17PM 43.1661 -86.1781 268° West 434 499 26,300 -2,160 Descending Chicago Center
05:18PM 43.1642 -86.3364 269° West 422 486 24,000 -2,400 Descending Chicago Center
05:19PM 43.1631 -86.5231 270° West 406 467 21,300 -2,400 Descending Chicago Center
05:20PM 43.1606 -86.6733 269° West 395 455 19,000 -2,220 Descending Chicago Center
05:21PM 43.1581 -86.8214 269° West 391 450 16,800 -2,220 Descending Chicago Center
05:22PM 43.1542 -86.9675 268° West 383 441 14,500 -1,380 Descending Chicago Center
05:23PM 43.1500 -87.1031 268° West 356 410 14,000 -480 Descending Chicago Center
05:24PM 43.1436 -87.2592 267° West 343 395 13,600 -960 Descending Chicago Center
05:25PM 43.1303 -87.3806 261° West 322 371 12,100 -1,500 Descending Chicago Center
05:26PM 43.1167 -87.5006 261° West 302 348 10,500 -1,500 Descending Chicago Center
05:27PM 43.1083 -87.6033 264° West 275 316 9,000 -1,500 Descending Chicago Center
05:28PM 43.0981 -87.7028 262° West 265 305 7,500 -1,020 Descending Chicago Center
05:29PM 43.0869 -87.7939 261° West 246 283 7,000 -300 Descending Chicago Center
05:30PM 43.0756 -87.8819 260° West 237 273 7,000 -780 Level Chicago Center
05:31PM 43.0686 -87.9572 263° West 206 237 5,500 -1,620 Descending Chicago Center
05:32PM 43.0581 -88.0450 261° West 201 231 3,700 -1,500 Descending Chicago Center
05:33PM 43.0397 -88.1158 251° West 198 228 2,500 -780 Descending Chicago Center
05:34PM 43.0472 -88.1889 278° West 207 238 2,200 -180 Descending Chicago Center
05:35PM 43.0744 -88.2497 302° West 193 222 2,200  Level Chicago Center
05:36PM 43.0783 -88.3164 275° West 184 212 2,300 -300 Climbing Chicago Center
05:37PM 43.0483 -88.3033 162° South 172 198 1,700 -540 Descending Chicago Center
05:38PM 43.0431 -88.2367 96° East 158 182 1,200 -540 Descending Chicago Center